Regional Weather Roundup
Issued by NWS

Home | Current Version | Previous Version | Text Only | Print | Product List | Glossary Off
Versions: 1 2 3 4 5 6 7 8 9 10 11 12 13 14 15 16 17 18 19 20 21 22 23 24 25 26 27 28 29 30 31 32 33 34 35 36 37 38 39 40 41 42 43 44 45 46 47 48 49 50

000
ASUS43 KBIS 222110
RWRND

NORTH DAKOTA REGIONAL WEATHER ROUNDUP
NATIONAL WEATHER SERVICE BISMARCK ND
400 PM CDT MON MAY 22 2017

NOTE: "FAIR" INDICATES FEW OR NO CLOUDS BELOW 12,000 FEET WITH NO
SIGNIFICANT WEATHER AND/OR OBSTRUCTIONS TO VISIBILITY.


NDZ001>003-009>011-017-222200-
NORTHWEST NORTH DAKOTA

CITY           SKY/WX    TMP DP  RH WIND       PRES   REMARKS
WILLISTON      CLOUDY    64  36  35 N14       30.06S
MINOT          LGT RAIN  56  43  61 NW14G31   29.98R
MINOT AFB      LGT RAIN  60  40  47 N20G30    29.96S
$$

NDZ018>021-031>035-040>046-222200-
SOUTHWEST NORTH DAKOTA

CITY           SKY/WX    TMP DP  RH WIND       PRES   REMARKS
BISMARCK       CLOUDY    61  39  44 N15G24    29.99R
DICKINSON      CLOUDY    58  33  39 N14       30.03R
GARRISON         N/A     63  36  36 N23G29    29.98F
HETTINGER ARPT PTSUNNY   62  34  35 N18G30    30.04R
$$

NDZ004>008-012>016-024-026-027-054-222200-
NORTHEAST NORTH DAKOTA

CITY           SKY/WX    TMP DP  RH WIND       PRES   REMARKS
GRAND FORKS    CLOUDY    54  45  71 N18       29.87S
GRND FRKS AFB  CLOUDY    50  45  81 N14       29.88S
DEVILS LAKE    LGT RAIN  53  43  68 N10       29.93S
$$

NDZ022-023-025-028>030-036>039-047>053-222200-
SOUTHEAST NORTH DAKOTA

CITY           SKY/WX    TMP DP  RH WIND       PRES   REMARKS
FARGO          CLOUDY    55  43  63 N18       29.87
JAMESTOWN      CLOUDY    54  40  59 N25G31    29.92R
$$





USA.gov is the U.S. government's official web portal to all federal, state and local government web resources and services.